User: anonymous   Login
Location: Sandbanks Provincial Park
(47.6073°N, 57.6428°W)
Time: 09:06:05
(UTC-03:-30)
Language:

Cosmos 2034 Rocket - Orbit

View from above orbital plane
View from above orbital plane
View from above satellite
View from above satellite

Ground track
Ground track

The orbit data is extracted from the following two-line orbital elements,

1 20150U 89059B   17053.89316882 +.00000062 +00000-0 +48965-4 0  9994
2 20150 082.9425 178.8772 0027969 240.0217 236.9341 13.75632209384460
Epoch (UTC): 22 February 2017 21:26:09
Eccentricity: 0.0027969
inclination: 82.9425°
perigee height: 959 km
apogee height: 1000 km
right ascension of ascending node: 178.8772°
argument of perigee: 240.0217°
revolutions per day: 13.75632209
mean anomaly at epoch: 236.9341°
orbit number at epoch: 38446

The dashed part of the orbit path shows where the satellite is in the earth's shadow,  

DLR